Regional Weather Roundup
Issued by NWS

Home | Current Version | Previous Version | Graphics & Text | Print | Product List | Glossary On
Versions: 1 2 3 4 5 6 7 8 9 10 11 12 13 14 15 16 17 18 19 20 21 22 23 24 25 26 27 28 29 30 31 32 33 34 35 36 37 38 39 40 41 42 43 44 45 46 47 48 49 50
000
ASUS43 KLOT 211903
RWRIL

ILLINOIS REGIONAL WEATHER ROUNDUP
NATIONAL WEATHER SERVICE CHICAGO/ROMEOVILLE IL
200 PM CDT SAT APR 21 2018

NOTE: "FAIR" INDICATES FEW OR NO CLOUDS BELOW 12,000 FEET WITH NO
SIGNIFICANT WEATHER AND/OR OBSTRUCTIONS TO VISIBILITY.

* THESE STATIONS ARE NOT UNDER NWS QUALITY CONTROL. THEY ALSO MAY NOT
  REPORT WEATHER SUCH AS PRECIPITATION OR FOG.

ILZ001-002-007-009-015-016-024-212000-
NORTHWEST ILLINOIS

CITY           SKY/WX    TMP DP  RH WIND       PRES   REMARKS
MOLINE         FAIR      60  29  30 E17       30.34F
SAVANNA*       PTSUNNY   54  34  47 E14       30.41S
$$

ILZ003-004-008-010-011-017-018-212000-
NORTH CENTRAL ILLINOIS

CITY           SKY/WX    TMP DP  RH WIND       PRES   REMARKS
ROCKFORD       LGT RAIN  54  33  45 NE7       30.44F
FREEPORT*      CLOUDY    52  37  58 E7        30.44F
ROCHELLE*      CLOUDY    54  30  40 E7        30.42F
DE KALB*       LGT RAIN  52  32  45 E3        30.43F
PERU*          FAIR      60  31  32 E10       30.40S
$$

ILZ005-006-012>014-019>023-212000-
NORTHEAST ILLINOIS

CITY           SKY/WX    TMP DP  RH WIND       PRES   REMARKS
CHICAGO-OHARE  CLOUDY    52  26  36 N6        30.42R
CHICAGO-MIDWAY CLOUDY    49  27  42 E5        30.43R
AURORA         CLOUDY    53  33  46 N9        30.42S
LANSING*       CLOUDY    49  35  58 CALM      30.42S
JOLIET*        CLOUDY    55  31  40 N3        30.42S
WAUKEGAN       PTSUNNY   52  23  32 E6        30.42S
DUPAGE AIRPORT CLOUDY    52  33  48 SW7       30.42S
KANKAKEE*      FAIR      58  26  29 E8        30.40F
WHEELING       PTSUNNY   54  23  30 NE6       30.44S
MORRIS*        CLOUDY    56  28  34 E6        30.40F
ROMEOVILLE*    DRIZZLE   52  31  43 CALM      30.42S
NORTHERLY ISL    N/A     42  33  70 CALM        N/A
$$

LMZ740>746-212000-
SOUTHERN LAKE MICHIGAN

STATION/POSITION SKY/WX   TEMP    WIND        PRES    VSBY  WAVE
                          AIR SEA DIR/SP/G                  HT/PER
                          (F)     (DEG/KT/KT) (MB)    (MI)  (FT/S)
HARRISON CRIB              40      30/  3/  3   N/A
BURNHAM HARBOR             42      70/  2/  7   N/A
CALUMET HARBOR             40      70/  3/  5 1029.7S
BURNS HARBOR               42      60/  6/  9 1030.5F
MICHIGAN CITY              41      30/  9/  9   N/A
$$

ILZ025>027-034>036-040-047-049-050-058-095>099-212000-
WEST-CENTRAL ILLINOIS

CITY           SKY/WX    TMP DP  RH WIND       PRES   REMARKS
QUINCY         CLOUDY    62  28  27 E12       30.28F
GALESBURG*     FAIR      62  29  28 E13       30.35F
MACOMB*        CLOUDY    61  25  25 E17G23    30.34F
JACKSONVILLE*  CLOUDY    60  29  30 E14       30.29F
PITTSFIELD*    CLOUDY    62  30  30 E13       30.28F
$$

ILZ028>032-037-038-041>044-048-051>054-059>061-212000-
CENTRAL ILLINOIS

CITY           SKY/WX    TMP DP  RH WIND       PRES   REMARKS
PONTIAC        FAIR      60  25  26 E12G17    30.40F
BLOOMINGTON    FAIR      62  28  27 E15       30.36F
DECATUR        FAIR      62  28  27 E15       30.32F
PEORIA         FAIR      62  27  26 E14       30.35F
LACON*         FAIR      58  26  28 E12       30.37F
LINCOLN*       FAIR      63  29  27 E7        30.33F
SPRINGFIELD    FAIR      65  29  25 E15       30.31F
TAYLORVILLE    FAIR      61  30  31 E9G16     30.32S
$$

ILZ033-039-045-046-055>057-062-063-212000-
EAST-CENTRAL ILLINOIS

CITY           SKY/WX    TMP DP  RH WIND       PRES   REMARKS
CHAMPAIGN      FAIR      63  27  25 E15       30.34F
DANVILLE*      FAIR      59  28  30 NE7       30.34F
RANTOUL*       FAIR      62  29  29 E9        30.36F
MATTOON        FAIR      62  32  32 SE6G20    30.32F
PARIS*         FAIR      61  32  33 E6        30.35F
$$

ILZ079-100>102-212000-
SOUTHWEST ILLINOIS

CITY           SKY/WX    TMP DP  RH WIND       PRES   REMARKS
ALTON          CLOUDY    64  36  34 E138      30.27F
BELLEVILLE     CLOUDY    65  31  28 E10       30.24F
CAHOKIA*       CLOUDY    67  31  26 E17G23    30.24F
SPARTA*        CLOUDY    65  39  38 E12       30.25F
$$

ILZ064>066-069>071-074>076-080>082-084>086-088>090-092>094-212000-
SOUTH-CENTRAL ILLINOIS

CITY           SKY/WX    TMP DP  RH WIND       PRES   REMARKS
CARBONDALE     FAIR      67  36  31 E10       30.24F
CAIRO*         FAIR      70  38  30 NE7       30.21F
EFFINGHAM*     FAIR      63  34  33 E8        30.32F
MARION         PTSUNNY   66  34  30 NE6       30.26F
MT. VERNON     FAIR      67  36  31 E8        30.28F
CENTRALIA*     CLOUDY    67  36  31 E13       30.26F
SALEM*         FAIR      66  30  25 E9        30.28F
METROPOLIS*    FAIR      71  36  27 E3        30.24F
$$

ILZ067-068-072-073-078-083-087-091-212000-
SOUTHEAST ILLINOIS

CITY           SKY/WX    TMP DP  RH WIND       PRES   REMARKS
LAWRENCEVILLE  FAIR      68  28  22 NE9       30.31F
FLORA*         FAIR      66  31  27 E10       30.30F
FAIRFIELD*     FAIR      65  32  28 E7        30.28F
HARRISBURG*    FAIR      67  41  38 E8        30.27F
ROBINSON*      FAIR      63  31  30 E8        30.32F
CARMI*         FAIR      68  34  28 NE7       30.27F
$$

ABBREVIATIONS USED IN REMARKS
   TC - TEMPERATURE IN CELSIUS
  WCI - WIND CHILL INDEX
   HX - HEAT INDEX
  VSB - VISIBILITY
$$





USA.gov is the U.S. government's official web portal to all federal, state and local government web resources and services.